Terug naar catalogus

THOR 7

ActiefCommunicatieGEO
NORAD 40613·PAYLOAD·🇳🇴 Norway

Gelanceerd Apr 26, 2015 vanaf Guiana Space Centre

Loading…

TLE

VersSource: Space-Track

Epoch: Sep 14, 2026, 13:47 UTC

1 40613U 15022A   26257.57492769 -.00000016  00000-0  00000-0 0  9993
2 40613   0.0125 207.7342 0002577 324.4217  27.7205  1.00271435 41712

Volg THOR 7 in realtime met AllMySat

Download on the App Store